Location: Dötzum
(52.0808°N, 9.8063°E)
Time: 04:55:00
(UTC+00:00)

ATLAS 2AS CENTAUR R/B - Pass Details

Date: 27 May 2022
Orbit: 966 x 1246 km, 63.7° (Epoch: 21 June)

Event Time Altitude Azimuth Distance (km) Brightness Sun altitude
Rises 02:10:36 0° 304° (WNW) 4,113 5.7 -7.6°
Reaches altitude 10° 02:13:38 10° 311° (NW) 3,113 5.2 -7.2°
Maximum altitude 02:20:36 41° 20° (NNE) 1,596 4.3 -6.5°
Drops below altitude 10° 02:27:06 10° 90° (E) 2,914 5.7 -5.9°
Sets 02:29:52 0° 98° (E) 3,826 6.2 -5.6°
